This demonstration page uses our WeatherBlox Daily Observations layout. Learn more.

Left ArrowRight Arrow

39.29038, -76.61219

Hourly Observations for March 2, 2015

Temp ( °F °C ) Dew Point ( °F °C ) Humidity (%) Winds ( mph kmh ) Pressure ( in mb ) Visibility ( mi km ) Precip ( " mm )
12:54 am 00:54 undefined 1 -17 N/A N/A undefined N/A 30.16 1022 N/A 0.00 0.00
1:54 am 01:54 undefined 1 -17 N/A N/A undefined N/A 30.14 1021 N/A 0.00 0.00
2:54 am 02:54 undefined 1 -17 N/A N/A undefined N/A 30.11 1020 N/A 0.00 0.00
3:54 am 03:54 undefined 1 -17 N/A N/A undefined N/A 30.08 1019 N/A 0.00 0.00
4:54 am 04:54 undefined 1 -17 N/A N/A undefined N/A 30.09 1019 N/A 0.00 0.00
5:54 am 05:54 undefined 1 -17 N/A N/A undefined N/A 30.11 1020 N/A 0.00 0.00
6:54 am 06:54 undefined 1 -17 N/A N/A undefined N/A 30.12 1020 N/A 0.00 0.00
7:54 am 07:54 undefined 1 -17 N/A N/A undefined N/A 30.16 1021 N/A 0.00 0.00
8:54 am 08:54 undefined 1 -17 N/A N/A undefined N/A 30.22 1024 N/A 0.00 0.00
9:54 am 09:54 undefined 1 -17 N/A N/A undefined N/A 30.26 1025 N/A 0.00 0.00
10:54 am 10:54 undefined 1 -17 N/A N/A undefined N/A 30.25 1024 N/A 0.00 0.00
11:54 am 11:54 undefined 1 -17 N/A N/A undefined N/A 30.29 1026 N/A 0.00 0.00
12:54 pm 12:54 undefined N/A N/A N/A undefined N/A 30.27 1025 N/A 0.00 0.00
1:54 pm 13:54 undefined 1 -17 N/A N/A undefined N/A 30.27 1025 N/A 0.00 0.00
2:54 pm 14:54 undefined 1 -17 N/A N/A undefined N/A 30.28 1025 N/A 0.00 0.00
3:54 pm 15:54 undefined 1 -17 N/A N/A undefined N/A 30.27 1025 N/A 0.00 0.00
4:54 pm 16:54 undefined 1 -17.2 1 -17.2 100 100 undefined N/A 30.29 1026 N/A 0.00 0.00
5:54 pm 17:54 undefined 1 -17 N/A N/A undefined N/A 30.32 1027 N/A 0.00 0.00
6:54 pm 18:54 undefined 1 -17.2 1 -17.2 100 100 undefined N/A 30.36 1028 N/A 0.00 0.00
7:54 pm 19:54 undefined 1 -17 N/A N/A undefined N/A 30.38 1029 N/A 0.00 0.00
8:54 pm 20:54 undefined 1 -17 N/A N/A undefined N/A 30.40 1029 N/A 0.00 0.00
10:54 pm 22:54 undefined 1 -17 N/A N/A undefined N/A 30.42 1030 N/A 0.00 0.00
11:54 pm 23:54 undefined 1 -17 N/A N/A undefined N/A 30.42 1030 N/A 0.00 0.00

Powered by AerisWeather